W2PJ Weather Reports


Display with metric or nautical units.
time (UTC)temp
F
wind
direction
speed
MPH
gust
MPH
rain 1hr
in
rain 24hr
in
rain mn
in
humidity
%
barometer
mb
20260507051555 41 313 0.0 4.0 0.00 0.52 0.00 94 1011.9
20260507051111 41 300 0.0 5.0 0.00 0.52 0.00 93 1011.8
20260507050629 41 334 0.0 1.0 0.00 0.52 0.00 93 1011.9
20260507050018 41 259 0.0 1.0 0.00 0.52 0.00 93 1011.9
20260507045538 41 293 0.0 1.0 0.00 0.52 0.00 93 1011.8
20260507045057 41 296 0.0 7.0 0.00 0.52 0.00 93 1011.7
20260507044501 41 299 0.0 10.0 0.00 0.52 0.00 93 1011.7
20260507044019 41 296 0.0 10.0 0.00 0.52 0.00 93 1011.6
20260507043538 42 305 0.0 6.0 0.00 0.52 0.00 93 1011.6
20260507043116 42 302 0.0 6.0 0.00 0.52 0.00 93 1011.4
20260507042511 42 289 0.0 3.0 0.00 0.52 0.00 93 1011.3
20260507042029 42 313 0.0 3.0 0.00 0.52 0.00 93 1011.2
20260507041516 42 302 0.0 0.0 0.00 0.52 0.00 93 1011.1
20260507041023 42 287 0.0 0.0 0.00 0.52 0.00 93 1011.0
20260507040546 42 279 0.0 0.0 0.00 0.52 0.00 93 1010.9
20260507040056 42 259 0.0 0.0 0.00 0.52 0.00 93 1010.9
20260507035616 42 317 0.0 0.0 0.00 0.54 0.52 93 1010.9
20260507035009 42 303 0.0 0.0 0.00 0.54 0.52 93 1011.0
20260507034556 42 313 0.0 0.0 0.00 0.54 0.52 93 1011.0
20260507034108 42 281 0.0 0.0 0.00 0.54 0.52 93 1011.0
20260507033627 42 259 0.0 0.0 0.00 0.54 0.52 93 1011.1
20260507033015 42 265 0.0 0.0 0.00 0.54 0.52 93 1011.0
20260507032529 42 255 0.0 0.0 0.00 0.54 0.52 93 1011.1
20260507032053 42 251 0.0 0.0 0.00 0.54 0.52 93 1011.2
20260507031504 42 248 0.0 0.0 0.00 0.54 0.52 93 1011.1
20260507031020 42 249 0.0 0.0 0.00 0.54 0.52 93 1011.1
20260507030543 42 302 0.0 0.0 0.00 0.54 0.52 93 1011.0
20260507030121 42 264 0.0 0.0 0.00 0.54 0.52 93 1011.0
20260507025517 42 264 0.0 0.0 0.00 0.56 0.52 93 1011.0
20260507025048 42 261 0.0 0.0 0.00 0.56 0.52 93 1011.1
20260507024513 42 252 0.0 0.0 0.00 0.56 0.52 93 1011.1
20260507024034 42 261 0.0 0.0 0.00 0.56 0.52 93 1011.1
20260507023556 42 265 0.0 0.0 0.00 0.56 0.52 93 1011.2
20260507023004 42 252 0.0 0.0 0.00 0.56 0.52 93 1011.1
20260507022527 42 230 0.0 0.0 0.00 0.56 0.52 93 1011.2
20260507022047 42 252 0.0 0.0 0.00 0.56 0.52 93 1011.1
20260507021500 42 251 0.0 0.0 0.00 0.56 0.52 93 1011.1
20260507021022 42 212 0.0 0.0 0.00 0.56 0.52 93 1011.0
20260507020540 42 210 0.0 0.0 0.00 0.56 0.52 93 1011.1
20260507020007 42 216 0.0 0.0 0.00 0.56 0.52 93 1011.1
20260507015524 42 224 0.0 0.0 0.00 0.59 0.52 93 1011.1
20260507015038 42 197 0.0 0.0 0.00 0.59 0.52 93 1011.2
20260507014615 42 220 0.0 0.0 0.00 0.59 0.52 93 1011.2
20260507014015 42 200 0.0 0.0 0.00 0.59 0.52 93 1011.1
20260507013534 42 204 0.0 0.0 0.00 0.59 0.52 93 1011.1
20260507013115 42 252 0.0 0.0 0.00 0.59 0.52 93 1011.1
20260507012510 42 252 0.0 0.0 0.00 0.59 0.52 93 1011.2
20260507012034 42 248 0.0 0.0 0.00 0.59 0.52 93 1011.2
20260507011605 42 258 0.0 0.0 0.00 0.59 0.52 93 1011.2
20260507011010 42 259 0.0 0.0 0.00 0.59 0.52 93 1010.9
20260507010534 42 259 0.0 0.0 0.00 0.59 0.52 93 1011.0
20260507010007 42 242 0.0 0.0 0.00 0.59 0.52 93 1011.1
20260507005523 42 259 0.0 0.0 0.00 0.59 0.52 93 1011.1
20260507005041 42 266 0.0 0.0 0.00 0.59 0.52 93 1011.1
20260507004625 42 247 0.0 0.0 0.00 0.59 0.52 93 1011.0
20260507004008 42 261 0.0 0.0 0.00 0.59 0.52 93 1010.9
20260507003529 42 258 0.0 0.0 0.00 0.59 0.52 93 1011.0
20260507003106 42 269 0.0 0.0 0.00 0.59 0.52 93 1010.9
20260507002516 42 257 0.0 0.0 0.00 0.59 0.52 93 1010.7
20260507002036 42 252 0.0 0.0 0.00 0.59 0.52 93 1010.6
20260507001622 42 286 0.0 0.0 0.00 0.59 0.52 93 1010.4
20260507001120 42 273 0.0 0.0 0.00 0.59 0.52 93 1010.7
20260507000501 43 261 0.0 0.0 0.00 0.59 0.52 93 1010.5
20260507000030 43 238 0.0 0.0 0.00 0.59 0.52 93 1010.3
20260506235544 43 252 0.0 0.0 0.00 0.59 0.52 93 1010.2
20260506235058 43 271 0.0 0.0 0.00 0.59 0.52 93 1010.2
20260506234518 43 297 0.0 0.0 0.00 0.59 0.52 93 1010.2
20260506234036 43 282 0.0 0.0 0.00 0.59 0.52 93 1010.0
20260506233553 43 271 0.0 0.0 0.00 0.59 0.52 93 1009.9
20260506233022 43 265 0.0 0.0 0.00 0.59 0.52 93 1009.6
20260506232532 43 230 0.0 0.0 0.00 0.59 0.52 93 1009.3
20260506232052 43 148 0.0 0.0 0.00 0.59 0.52 93 1009.1
20260506231513 43 228 0.0 0.0 0.00 0.59 0.52 93 1009.3
20260506231030 43 228 0.0 0.0 0.00 0.59 0.52 93 1009.5
20260506230544 43 279 0.0 0.0 0.00 0.59 0.52 93 1009.5
20260506230015 43 299 0.0 0.0 0.00 0.59 0.52 93 1009.6
20260506225530 43 289 0.0 0.0 0.00 0.59 0.52 93 1009.6
20260506225050 43 257 0.0 0.0 0.00 0.59 0.52 93 1009.7
20260506224514 43 285 0.0 0.0 0.00 0.59 0.52 93 1009.6
20260506224037 43 303 0.0 0.0 0.00 0.59 0.52 93 1009.6
20260506223554 43 303 0.0 0.0 0.00 0.59 0.52 93 1009.6
20260506223005 43 327 0.0 2.0 0.00 0.59 0.52 93 1009.7
20260506222518 43 297 0.0 2.0 0.00 0.59 0.52 93 1009.8
20260506222037 43 293 0.0 1.0 0.00 0.59 0.52 93 1009.7
20260506221516 43 317 0.0 1.0 0.00 0.59 0.52 93 1009.8
20260506221036 43 278 0.0 3.0 0.00 0.59 0.52 93 1009.7
20260506220554 43 317 0.0 3.0 0.00 0.59 0.52 93 1009.7
20260506220014 43 313 0.0 3.0 0.00 0.59 0.52 93 1009.6
20260506215528 43 316 0.0 1.0 0.00 0.61 0.52 93 1009.4
20260506215044 43 337 0.0 1.0 0.00 0.61 0.52 93 1009.3
20260506214525 42 292 0.0 1.0 0.00 0.61 0.52 93 1009.3
20260506214040 42 307 0.0 2.0 0.00 0.61 0.52 93 1009.3
20260506213600 43 316 0.0 1.0 0.00 0.61 0.52 93 1009.3
20260506213107 43 297 0.0 1.0 0.00 0.61 0.52 93 1009.3
20260506212511 43 282 0.0 1.0 0.00 0.61 0.52 93 1009.2
20260506212028 43 313 0.0 1.0 0.00 0.61 0.52 93 1009.1
20260506211610 43 240 0.0 3.0 0.00 0.61 0.52 93 1008.9
20260506211018 43 293 0.0 4.0 0.00 0.61 0.52 93 1009.1
20260506210539 43 238 0.0 4.0 0.00 0.61 0.52 93 1009.0
20260506210137 43 307 0.0 8.0 0.00 0.61 0.52 93 1008.9
20260506205520 43 302 0.0 8.0 0.00 0.63 0.52 93 1008.7
20260506205036 43 297 0.0 1.0 0.01 0.63 0.52 93 1008.7
20260506204556 43 300 0.0 1.0 0.01 0.63 0.52 93 1008.6
20260506204121 43 310 0.0 1.0 0.01 0.63 0.52 93 1008.5
20260506203634 43 285 0.0 2.0 0.01 0.63 0.52 93 1008.5
20260506203040 42 289 0.0 2.0 0.01 0.63 0.52 93 1008.4
20260506202546 42 330 0.0 1.0 0.02 0.63 0.52 93 1008.2
20260506202050 43 299 0.0 1.0 0.02 0.63 0.52 93 1008.2
20260506201624 43 323 0.0 2.0 0.02 0.63 0.52 93 1008.3
20260506201009 43 3 0.0 3.0 0.02 0.63 0.52 93 1008.2
20260506200528 43 307 0.0 3.0 0.03 0.63 0.52 93 1008.3
20260506200118 43 299 0.0 5.0 0.03 0.63 0.52 93 1008.3
20260506195613 43 273 0.0 5.0 0.03 0.63 0.52 93 1008.3
20260506195125 43 313 0.0 3.0 0.03 0.62 0.51 93 1008.2
20260506194524 43 337 0.0 0.0 0.03 0.62 0.51 93 1008.2
20260506194041 43 265 0.0 1.0 0.04 0.62 0.51 93 1008.2
20260506193556 43 338 0.0 1.0 0.04 0.62 0.51 93 1008.1
20260506193110 43 299 0.0 1.0 0.04 0.62 0.51 93 1008.0
20260506192514 43 302 0.0 1.0 0.03 0.61 0.50 93 1008.0
20260506192037 43 294 0.0 2.0 0.03 0.61 0.50 93 1008.0
20260506191604 43 273 0.0 2.0 0.03 0.61 0.50 93 1007.9
20260506191124 43 278 0.0 2.0 0.03 0.61 0.50 93 1007.9
20260506190509 43 302 0.0 2.0 0.02 0.60 0.49 93 1008.0
20260506190045 44 297 0.0 2.0 0.02 0.60 0.49 93 1007.9
20260506185606 44 294 0.0 4.0 0.02 0.64 0.49 93 1007.9
20260506185120 44 305 0.0 4.0 0.01 0.63 0.48 93 1007.8
20260506184524 44 296 0.0 1.0 0.01 0.63 0.48 93 1007.6
20260506184042 44 314 0.0 0.0 0.00 0.62 0.47 93 1007.5
20260506183602 44 318 0.0 0.0 0.00 0.62 0.47 93 1007.5
20260506183007 44 323 0.0 0.0 0.00 0.62 0.47 93 1007.4
20260506182526 44 306 0.0 0.0 0.00 0.62 0.47 93 1007.3
20260506182044 44 296 0.0 0.0 0.00 0.62 0.47 93 1007.2
20260506181519 44 304 0.0 0.0 0.00 0.62 0.47 93 1007.2
20260506181034 44 318 0.0 0.0 0.00 0.62 0.47 93 1007.2
20260506180554 44 307 0.0 0.0 0.00 0.62 0.47 93 1007.2
20260506180014 44 307 0.0 0.0 0.00 0.62 0.47 93 1007.0
20260506175530 44 304 0.0 0.0 0.01 0.62 0.47 93 1007.0
20260506175046 44 319 0.0 0.0 0.01 0.62 0.47 93 1007.0
20260506174518 44 302 0.0 0.0 0.02 0.62 0.47 93 1006.9
20260506174039 44 317 0.0 0.0 0.02 0.62 0.47 93 1007.0
20260506173559 44 318 0.0 0.0 0.02 0.62 0.47 93 1006.8
20260506173026 44 309 0.0 0.0 0.02 0.62 0.47 93 1006.9
20260506172544 44 27 0.0 0.0 0.02 0.62 0.47 93 1006.9
20260506172056 44 29 0.0 0.0 0.02 0.62 0.47 93 1006.8
20260506171505 44 24 0.0 0.0 0.02 0.62 0.47 93 1006.8
20260506171026 43 323 0.0 0.0 0.02 0.62 0.47 93 1006.8
20260506170549 43 337 0.0 0.0 0.03 0.62 0.47 93 1006.8
20260506170017 43 302 0.0 0.0 0.03 0.62 0.47 93 1006.7
20260506165534 43 328 0.0 0.0 0.02 0.61 0.46 93 1006.8
20260506165056 43 10 0.0 0.0 0.02 0.61 0.46 93 1006.8
20260506164524 43 323 0.0 0.0 0.01 0.60 0.45 93 1007.0
20260506164042 43 316 0.0 0.0 0.02 0.60 0.45 93 1006.8
20260506163556 43 9 0.0 0.0 0.02 0.60 0.45 93 1006.7
20260506163109 42 28 0.0 0.0 0.02 0.60 0.45 93 1006.8
20260506162515 42 307 0.0 0.0 0.02 0.60 0.45 93 1006.9
20260506162041 42 327 0.0 0.0 0.02 0.60 0.45 93 1007.0
20260506161520 42 337 0.0 0.0 0.02 0.60 0.45 93 1007.0
20260506161028 42 353 0.0 0.0 0.02 0.60 0.45 93 1007.1
20260506160550 42 352 0.0 0.0 0.01 0.59 0.44 93 1007.0
20260506160022 42 327 0.0 0.0 0.02 0.59 0.44 93 1007.1
20260506155540 42 282 0.0 0.0 0.02 0.59 0.44 93 1007.0
20260506155100 42 20 0.0 0.0 0.02 0.59 0.44 93 1007.0
20260506154506 42 316 0.0 0.0 0.02 0.59 0.44 93 1007.2
20260506154029 42 295 0.0 0.0 0.02 0.57 0.43 93 1007.1
20260506153547 42 65 0.0 0.0 0.02 0.57 0.43 93 1007.0
20260506153022 42 1 0.0 0.0 0.03 0.57 0.43 93 1007.1
20260506152540 42 303 0.0 0.0 0.03 0.57 0.43 93 1007.3
20260506152100 42 306 0.0 0.0 0.04 0.57 0.43 93 1007.1
20260506151502 42 325 0.0 0.0 0.04 0.57 0.43 93 1006.7
20260506151022 42 337 0.0 0.0 0.05 0.57 0.43 93 1006.6
20260506150546 42 31 0.0 0.0 0.05 0.57 0.43 93 1006.5
20260506150010 42 48 0.0 0.0 0.05 0.56 0.42 93 1006.4
20260506145529 42 318 0.0 0.0 0.05 0.56 0.42 93 1006.4
20260506145046 42 29 0.0 0.0 0.06 0.56 0.42 93 1006.5
20260506144512 42 58 0.0 0.0 0.06 0.56 0.42 93 1006.5
20260506144030 42 337 0.0 0.0 0.06 0.56 0.41 93 1006.7
20260506143546 42 67 0.0 0.0 0.06 0.56 0.41 93 1006.5
20260506143022 42 43 0.0 0.0 0.06 0.55 0.40 93 1006.6
20260506142536 42 20 0.0 0.0 0.07 0.55 0.40 93 1006.7
20260506141520 42 24 0.0 0.0 0.07 0.54 0.39 93 1006.6
20260506141038 42 32 0.0 0.0 0.07 0.53 0.38 93 1006.7
20260506140557 42 34 0.0 0.0 0.08 0.53 0.38 93 1006.7
20260506140006 42 35 0.0 0.0 0.09 0.52 0.37 93 1006.6
20260506135526 42 64 0.0 0.0 0.09 0.52 0.37 93 1006.7
20260506135042 42 44 0.0 0.0 0.09 0.51 0.36 93 1006.6
20260506134620 42 49 0.0 1.0 0.09 0.51 0.36 93 1006.7
20260506134017 42 1 0.0 1.0 0.09 0.50 0.35 93 1006.8
20260506133535 42 32 0.0 0.0 0.10 0.50 0.35 93 1006.8
20260506133002 42 15 0.0 0.0 0.09 0.49 0.34 93 1006.9
20260506132524 42 27 0.0 0.0 0.09 0.48 0.33 93 1006.9
20260506132040 42 32 0.0 0.0 0.09 0.48 0.33 93 1006.7
20260506131521 42 29 0.0 0.0 0.09 0.47 0.32 93 1006.8
20260506131035 42 335 0.0 0.0 0.08 0.46 0.31 93 1007.0
20260506130556 42 337 0.0 0.0 0.07 0.44 0.28 93 1006.9
20260506130011 42 326 0.0 0.0 0.06 0.43 0.28 93 1006.9
20260506125530 42 10 0.0 0.0 0.07 0.43 0.28 93 1006.6
20260506125048 42 55 0.0 0.0 0.07 0.42 0.27 93 1006.8
20260506124510 42 39 0.0 0.0 0.06 0.41 0.26 93 1006.5
20260506124022 42 28 0.0 0.0 0.07 0.41 0.26 93 1006.6
20260506123544 42 58 0.0 0.0 0.06 0.40 0.25 93 1006.5
20260506123104 42 76 0.0 0.0 0.07 0.40 0.25 93 1006.5
20260506122622 42 69 0.0 0.0 0.07 0.39 0.24 93 1006.7
20260506122007 42 72 0.0 0.0 0.08 0.39 0.24 93 1006.6
20260506121549 42 66 0.0 0.0 0.08 0.38 0.23 93 1006.7
20260506121110 42 43 0.0 0.0 0.08 0.38 0.23 93 1006.7
20260506120628 42 59 0.0 0.0 0.08 0.37 0.22 93 1006.8
20260506120042 42 34 0.0 0.0 0.09 0.37 0.22 93 1006.8
20260506115602 42 66 0.0 0.0 0.00 0.00 0.21 93 1006.6
20260506115121 42 40 0.0 0.0 0.08 0.35 0.20 93 1006.6
20260506114526 43 114 0.0 0.0 0.08 0.35 0.20 93 1006.7
20260506114038 43 39 0.0 0.0 0.08 0.34 0.19 93 1006.6
20260506113556 43 261 0.0 0.0 0.08 0.34 0.19 93 1006.9
20260506113005 43 22 0.0 0.0 0.07 0.33 0.18 93 1006.7
20260506112520 43 289 0.0 0.0 0.07 0.32 0.17 93 1006.6
20260506112040 43 38 0.0 0.0 0.06 0.31 0.16 93 1006.8
20260506111513 43 72 0.0 0.0 0.05 0.30 0.15 93 1006.7
20260506111028 43 62 0.0 0.0 0.04 0.28 0.14 93 1006.8
20260506110548 43 69 0.0 0.0 0.04 0.28 0.14 93 1006.9
20260506110119 43 58 0.0 0.0 0.04 0.28 0.13 93 1006.9
20260506105515 43 266 0.0 0.0 0.03 0.27 0.12 93 1007.0
20260506105036 43 29 0.0 0.0 0.03 0.27 0.12 93 1006.9
20260506104510 43 50 0.0 0.0 0.03 0.27 0.12 93 1006.7
20260506104024 43 79 0.0 0.0 0.03 0.26 0.11 93 1006.6
20260506103544 43 72 0.0 0.0 0.03 0.26 0.11 93 1006.6
20260506103124 43 79 0.0 0.0 0.03 0.26 0.11 93 1006.5
20260506102514 43 53 0.0 0.0 0.02 0.25 0.10 93 1006.7
20260506102032 43 42 0.0 0.0 0.02 0.25 0.10 93 1006.7
20260506101615 43 46 0.0 0.0 0.02 0.25 0.10 93 1006.7
20260506101006 43 58 0.0 0.0 0.03 0.25 0.10 93 1006.9
20260506100524 43 116 0.0 0.0 0.03 0.25 0.10 93 1006.9
20260506100002 43 315 0.0 0.0 0.02 0.24 0.09 93 1007.0
20260506095524 43 53 0.0 0.0 0.03 0.24 0.09 93 1007.0
20260506095040 43 296 0.0 0.0 0.03 0.24 0.09 93 1007.5
20260506094517 43 58 0.0 0.0 0.04 0.24 0.09 93 1007.1
20260506094039 43 257 0.0 0.0 0.03 0.23 0.08 93 1007.8
20260506093554 43 48 0.0 1.0 0.04 0.23 0.08 93 1007.2
20260506093126 43 278 0.0 1.0 0.04 0.23 0.08 93 1007.0
20260506092522 43 50 0.0 1.0 0.04 0.23 0.08 93 1007.7
20260506092039 44 354 0.0 0.0 0.04 0.23 0.08 93 1007.5
20260506091558 44 52 0.0 1.0 0.04 0.23 0.08 93 1007.3
20260506091115 44 62 0.0 0.0 0.04 0.22 0.07 93 1007.0
20260506090630 44 318 0.0 0.0 0.04 0.22 0.07 93 1007.0
20260506090021 45 358 0.0 0.0 0.04 0.22 0.07 93 1007.2
20260506085539 45 28 0.0 0.0 0.03 0.22 0.06 93 1007.2
20260506085058 45 165 0.0 0.0 0.03 0.22 0.06 93 1007.4
20260506084510 45 337 0.0 0.0 0.02 0.21 0.05 93 1007.6
20260506084023 45 358 0.0 0.0 0.02 0.21 0.05 93 1007.5
20260506083541 45 352 0.0 0.0 0.01 0.20 0.04 93 1007.5
20260506083005 45 335 0.0 0.0 0.01 0.20 0.04 93 1007.5
20260506082519 45 3 0.0 1.0 0.01 0.20 0.04 93 1007.2
20260506082040 45 43 0.0 1.0 0.01 0.20 0.04 93 1007.1
20260506081506 45 3 0.0 0.0 0.01 0.20 0.04 93 1007.2
20260506081028 45 333 0.0 0.0 0.00 0.19 0.03 93 1007.3
20260506080543 45 32 0.0 0.0 0.00 0.19 0.03 93 1007.1
20260506073123 45 74 0.0 0.0 0.00 0.19 0.03 93 1006.8
20260506072542 45 13 0.0 0.0 0.03 0.19 0.03 93 1007.0
20260506072100 45 14 0.0 0.0 0.03 0.19 0.03 93 1007.3
20260506071510 45 27 0.0 0.0 0.03 0.19 0.03 93 1007.2
20260506071028 45 83 0.0 0.0 0.03 0.19 0.03 93 1007.2
20260506070545 45 88 0.0 0.0 0.03 0.19 0.03 93 1007.1
20260506062100 45 359 0.0 0.0 0.00 0.16 0.00 93 1007.9
20260506061518 45 290 0.0 1.0 0.00 0.16 0.00 93 1007.7
20260506061033 45 90 0.0 1.0 0.00 0.16 0.00 93 1007.2
20260506060546 45 327 0.0 1.0 0.00 0.16 0.00 93 1007.6